Tracking 19800 objects as of 23-Jul-2019
HD Live streaming from Space Station
objects crossing your sky now

INS-1B

Track INS-1B now!
10-day predictions


NORAD ID: 41954
Int'l Code: 2017-008G
Perigee: 494.1 km
Apogee: 507.8 km
Inclination: 97.4 °
Period: 94.5 minutes
Semi major axis: 6871 km
RCS: Unknown
Launch date: February 15, 2017
Source: India (IND)
Launch site: SRIHARIKOTA (SRI)
aabbcc
Your satellite tracking list
Your tracking list is empty




NASA's NSSDC Master Catalog

Two Line Element Set (TLE):
1 41954U 17008G   19204.16429684  .00000710  00000-0  32231-4 0  9998
2 41954  97.3977 268.7518 0010004  34.0473 326.1404 15.24000150135052
Source of the keplerian elements: AFSPC